Regional Weather Roundup
Issued by NWS Green Bay, WI

Home | Current Version | Previous Version | Graphics & Text | Print | Product List | Glossary Off
Versions: 1 2 3 4 5 6 7 8 9 10 11 12 13 14 15 16 17 18 19 20 21 22 23 24 25 26 27 28 29 30 31 32 33 34 35 36 37 38 39 40 41 42 43 44 45 46 47 48 49 50

000
ASUS43 KGRB 102000
RWRGRB

NORTH-CENTRAL AND NORTHEAST WISCONSIN REGIONAL WEATHER ROUNDUP
NATIONAL WEATHER SERVICE GREEN BAY WI
200 PM CST SAT DEC 10 2016

WIZ005-009-010>012-018-019-102100-
NORTH CENTRAL WISCONSIN

CITY           SKY/WX    TMP DP  RH WIND       PRES   REMARKS
IRONWOOD       MOSUNNY    9  -2  61 SW5       30.33F WCI   1
MANITOWISH WTR NOT AVBL
ARBOR VITAE    NOT AVBL
EAGLE RIVER    NOT AVBL
LAND O LAKES   NOT AVBL
RHINELANDER    SUNNY     11  -2  56 SW3       30.28F
PHILLIPS       CLOUDY     9  -1  61 CALM      30.29F
ANTIGO         NOT AVBL
TOMAHAWK       NOT AVBL
MERRILL        NOT AVBL
$$

WIZ013-073-102100-
NORTHEAST WISCONSIN

CITY           SKY/WX    TMP DP  RH WIND       PRES   REMARKS
IRON MOUNTAIN  MOSUNNY   17  -1  45 NW8       30.29F WCI   7
MARINETTE      SUNNY     19   1  45 W7        30.36F WCI  10
$$

WIZ017-030-035>037-045-102100-
CENTRAL WISCONSIN

CITY           SKY/WX    TMP DP  RH WIND       PRES   REMARKS
MEDFORD        NOT AVBL
WAUSAU         CLOUDY    11   1  64 NW3       30.32F
MOSINEE        PTSUNNY   12   3  67 W5        30.34F WCI   4
MARSHFIELD     CLOUDY    13   2  61 VRB3      30.31F
WISC RAPIDS    MOSUNNY   14   4  64 SW5       30.35F WCI   6
STEVENS POINT  NOT AVBL
WAUPACA        NOT AVBL
SHAWANO        NOT AVBL
CLINTONVILLE   NOT AVBL
WAUTOMA        CLOUDY    16   7  67 SW7       30.38F WCI   6
$$

WIZ038-039-048-051-102100-
FOX VALLEY

CITY           SKY/WX    TMP DP  RH WIND       PRES   REMARKS
NWS GREEN BAY  SUNNY     21   7  54 W8        30.37F
APPLETON       PTSUNNY   18   1  49 W8        30.35F WCI   7
OSHKOSH        CLOUDY    18   6  59 W7        30.37F WCI   9
FOND DU LAC    PTSUNNY   18   6  59 VRB7      30.39F WCI   9
$$

WIZ022-050-052-102100-
EAST CENTRAL WISCONSIN

CITY           SKY/WX    TMP DP  RH WIND       PRES   REMARKS
EPHRAIM        NOT AVBL
WASHINGTON ISL NOT AVBL
STURGEON BAY   SUNNY     18   6  59 NW9       30.37F WCI   7
MANITOWOC      NOT AVBL
SHEBOYGAN      SUNNY     20   7  57 W10       30.38F WCI   9
$$

LMZ563-521-522-541>543-102100-
LAKESHORE

STATION/POSITION TIME  TEMP    WIND        PRES    VSBY  WAVE
                       AIR SEA DIR/SP/G                  HT/PER
                 (UTC) (F)     (DEG/KT/KT) (MB)    (MI)  (FT/S)
SHEBOYGAN LKSHOR 1900   19     290/ 11/ 13 1030.5F
KEWAUNEE LKSHORE 1930   18     270/  7/ 13 1028.1F
NORTHPORT PIER   1940   22     280/  4/ 12 1027.8S
SISTER BAY LKSHO 1950   28     310/ 12/ 15   N/A
CHAMBERS ISLAND  1940   20     240/  6/  9 1027.4F
MENOMINEE LKSHOR 1930   18     250/  6/ 10 1027.4F
$$



USA.gov is the U.S. government's official web portal to all federal, state and local government web resources and services.